Retour au catalogue

CZ-3B R/B

ActifGTO
NORAD 64471·ROCKET BODY·🇨🇳 China

Lancé Jun 20, 2025 depuis Xichang Satellite Launch Center

Loading…

TLE

PériméSource: Space-Track

Époque: Sep 11, 2026, 08:52 UTC

1 64471U 25132B   26254.36969349  .00005763  00000-0  13311-2 0  9995
2 64471  27.7709 286.9882 7216144  95.8391 342.6178  2.36878936 10340

Suivez CZ-3B R/B en temps réel avec AllMySat

Download on the App Store